[[{"header":{"parameterUnit":"m.s-1","parameterCategory":1,"la1":30.2992,"la2":30.254,"lo1":-89.0895,"lo2":-89.0443,"dy":0.0025,"dx":0.0025,"nx":19,"ny":19,"refTime":"2026-04-21T09:00:00:Z","depth":0,"parameterNumber":2,"parameterNumberName":"U-component_of_WINDS"},"data":[0,0,0,1.0678,1.0678,1.0691,1.0691,1.0694,1.0694,0,0,0,0,0,0,0,0,0,0,0,1.0667,1.0667,1.0678,1.0678,1.0691,1.0691,1.0694,1.0694,0,0,0,0,0,0,0,0,0,0,0,1.0667,1.0667,1.0667,1.0678,1.0691,1.0691,1.0694,1.0689,0,0,0,0,0,0,0,0,0,0,1.0679,1.0662,1.0667,1.0667,1.0678,1.0691,1.0691,1.0689,1.069,1.0683,0,1.0677,0,1.0686,1.0694,1.0694,0,0,0,1.0683,1.0662,1.0672,1.0667,1.0678,1.0691,1.0687,1.069,1.069,1.0684,1.0677,1.0677,1.0686,1.0694,1.0694,1.0643,1.0642,0,0,1.0682,1.0665,1.0672,1.0672,1.067,1.0686,1.0687,1.069,1.0681,1.0677,1.0678,1.0686,1.0694,1.0694,1.0643,1.0643,0,0,0,1.0677,1.0665,1.0675,1.0671,1.0675,1.0686,1.0687,1.0681,1.0686,1.0678,1.0686,1.0694,1.0694,1.0644,1.0643,1.0602,0,0,0,1.0677,1.0662,1.0674,1.0664,1.0674,1.0678,1.0678,1.0685,1.0686,1.0686,1.0694,1.0694,1.0644,1.0643,1.0604,1.0584,0,0,0,1.0669,1.0661,1.066,1.0663,1.0668,1.0678,1.0684,1.0686,1.0691,1.0694,1.0694,1.0645,1.0644,1.0606,1.0588,1.0564,0,0,0,1.0655,1.0624,1.0659,1.0628,1.0668,1.0654,1.0684,1.0674,1.0672,1.0694,1.0644,1.0643,1.0607,1.059,1.0566,1.0539,1.0527,0,0,1.0606,1.0618,1.0601,1.0633,1.0608,1.0653,1.0622,1.0636,1.0652,1.0645,1.0644,1.0603,1.0588,1.0565,1.0471,1.0461,0,0,0,1.0579,1.0567,1.0564,1.0561,1.0572,1.0578,1.0599,1.0604,1.0599,1.0645,1.0591,1.0582,1.0569,1.0556,1.0548,1.0537,1.0638,1.0638,1.0638,1.0484,1.0507,1.048,1.0503,1.05,1.0522,1.0521,1.0532,1.0556,1.0542,1.0539,1.0479,1.0465,1.0458,1.0446,1.0529,1.0529,1.0529,1.0529,1.0413,1.0397,1.043,1.0415,1.0439,1.0426,1.0446,1.0463,1.0454,1.0484,1.0473,1.0501,1.0447,1.0438,1.0526,1.0526,1.0527,1.0527,1.0527,1.0351,1.0347,1.0355,1.0353,1.0349,1.0375,1.0364,1.0387,1.0408,1.0398,1.0396,1.0396,1.0397,1.0396,1.0396,1.0396,1.0395,1.0395,1.0395,1.0282,1.0292,1.0281,1.029,1.029,1.0295,1.0317,1.0318,1.0325,1.0342,1.0342,1.0365,1.0439,1.0455,1.0392,1.0392,1.0393,1.0393,1.0393,1.0196,1.0219,1.0201,1.0202,1.0214,1.0207,1.0238,1.0238,1.0243,1.0236,1.0263,1.0315,1.0327,1.0334,1.0347,1.026,1.026,1.026,1.026,1.0141,1.0151,1.0137,1.0136,1.0139,1.0165,1.0142,1.0159,1.018,1.0184,1.0201,1.0222,1.0228,1.0237,1.0245,1.0258,1.015,1.015,1.015,1.0088,1.0099,1.0075,1.0097,1.0108,1.0117,1.0096,1.0093,1.0122,1.0146,1.0187,1.0191,1.0226,1.0236,1.0256,1.027,1.0294,0,0]},{"header":{"parameterUnit":"m.s-1","parameterCategory":1,"la1":30.2992,"la2":30.254,"lo1":-89.0895,"lo2":-89.0443,"dy":0.0025,"dx":0.0025,"nx":19,"ny":19,"refTime":"2026-04-21T09:00:00:Z","depth":0,"parameterNumber":3,"parameterNumberName":"V-component_of_WINDS"},"data":[0,0,0,0.0485,0.0484,0.0407,0.0407,0.0315,0.0314,0,0,0,0,0,0,0,0,0,0,0,0.0512,0.0511,0.0485,0.0483,0.0407,0.0407,0.0315,0.0314,0,0,0,0,0,0,0,0,0,0,0,0.0512,0.0512,0.0511,0.0483,0.0407,0.0407,0.0315,0.037,0,0,0,0,0,0,0,0,0,0,0.0444,0.0473,0.0512,0.0511,0.0483,0.0407,0.0407,0.0373,0.0367,0.0352,0,0.034,0,0.0326,0.0308,0.0308,0,0,0,0.048,0.0478,0.0453,0.0511,0.0482,0.0407,0.0441,0.037,0.0363,0.0344,0.0339,0.0335,0.0324,0.0308,0.0307,0.0233,0.0233,0,0,0.0484,0.05,0.0458,0.0449,0.0462,0.0443,0.0438,0.0365,0.0361,0.0339,0.0333,0.0323,0.0307,0.0306,0.0234,0.0233,0,0,0,0.0499,0.0503,0.0481,0.0453,0.0439,0.0441,0.0435,0.0364,0.0355,0.0332,0.0322,0.0307,0.0305,0.0234,0.0234,0.024,0,0,0,0.0501,0.0512,0.0483,0.0492,0.0441,0.0401,0.0436,0.036,0.0351,0.0322,0.0306,0.0305,0.0234,0.0234,0.024,0.024,0,0,0,0.0515,0.0513,0.0504,0.0493,0.046,0.0401,0.0388,0.0358,0.0345,0.0308,0.0304,0.0234,0.0234,0.024,0.024,0.0225,0,0,0,0.0535,0.051,0.0504,0.0472,0.0461,0.0406,0.0389,0.0347,0.0315,0.0306,0.0234,0.0234,0.024,0.024,0.0225,0.0214,0.0212,0,0,0.0512,0.0508,0.0487,0.048,0.043,0.0417,0.0367,0.0323,0.0305,0.0258,0.0256,0.024,0.024,0.0225,0.0192,0.019,0,0,0,0.0485,0.0471,0.0454,0.0425,0.0392,0.0363,0.0325,0.0309,0.0268,0.0284,0.023,0.0229,0.022,0.0214,0.0212,0.0203,0.0232,0.0232,0.0232,0.0474,0.0453,0.0418,0.0387,0.036,0.0321,0.0297,0.0268,0.0254,0.0242,0.0227,0.021,0.0204,0.0202,0.0193,0.0221,0.0221,0.0221,0.0221,0.0437,0.0414,0.0397,0.0356,0.0334,0.03,0.0262,0.0253,0.0218,0.0219,0.0209,0.0212,0.0201,0.0191,0.0221,0.0221,0.0221,0.0221,0.0221,0.0427,0.0412,0.0394,0.035,0.0319,0.0289,0.0256,0.0237,0.0218,0.0209,0.0192,0.0192,0.0188,0.0202,0.0202,0.0202,0.0202,0.0202,0.0202,0.0424,0.0403,0.0378,0.0341,0.032,0.029,0.0252,0.023,0.0202,0.019,0.019,0.0177,0.0204,0.0211,0.0201,0.0201,0.0201,0.0201,0.0202,0.0393,0.0397,0.0359,0.0338,0.0293,0.0264,0.024,0.0198,0.0178,0.0162,0.0152,0.0175,0.0169,0.017,0.0176,0.0157,0.0157,0.0157,0.0157,0.0384,0.038,0.0336,0.0304,0.0271,0.0246,0.0202,0.0173,0.0142,0.0128,0.0128,0.0134,0.0136,0.0129,0.0131,0.0136,0.0107,0.0107,0.0107,0.0364,0.0356,0.0323,0.0294,0.0257,0.0226,0.0185,0.0149,0.0115,0.0105,0.0117,0.0119,0.0128,0.0132,0.0122,0.0125,0.0134,0,0]}]]